Walla Walla, WA

12:21 PM PST on December 15, 2017 (GMT -0800)
Walla Walla Regional

Weather History for KALW - October, 2012

Change the Weather History Date:

Tuesday, October 30, 2012

  Actual Average Record
Temperature  
Mean Temperature 62 °F 48 °F  
Max Temperature 70 °F 57 °F 72 °F (1967)
Min Temperature 55 °F 39 °F 16 °F (2002)
Degree Days  
Heating Degree Days 3 17  
Month to date heating degree days 350  
Since 1 July heating degree days 448  
Cooling Degree Days 0 0  
Month to date cooling degree days 3  
Year to date cooling degree days 848  
Growing Degree Days 12 (Base 50)    
Moisture  
Dew Point 50 °F    
Average Humidity 70    
Maximum Humidity 87    
Minimum Humidity 45    
Precipitation  
Precipitation 0.00 in 0.09 in 0.71 in (1990)
Month to date precipitation 1.60  
Year to date precipitation 15.43  
Snow  
Snow 0.00 in 0.00 in 1.00 in (1971)
Month to date snowfall 0.1  
Year to date snowfall 6.1  
Since 1 July snowfall 0.1  
Snow Depth -    
Sea Level Pressure  
Sea Level Pressure 29.91 in    
Wind  
Wind Speed 5 mph (SE)    
Max Wind Speed 8 mph    
Max Gust Speed -    
Visibility 10 miles    
Events Rain    
T = Trace of Precipitation, MM = Missing Value Source: NWS Daily Summary

Daily Weather History Graph

Daily Weather History Graph

Search for Another Location

Airport or City:

Trip Planner

Search our weather history database for the weather conditions in past years. The results will help you decide how hot, cold, wet, or windy it might be!

Date:

Astronomy

Oct. 30, 2012 Rise Set
Actual Time 7:31 AM PDT 5:41 PM PDT
Civil Twilight 7:00 AM PDT 6:12 PM PDT
Nautical Twilight 6:25 AM PDT 6:47 PM PDT
Astronomical Twilight 5:50 AM PDT 7:22 PM PDT
Moon 6:08 PM PDT (10/30) 8:27 AM PDT (10/30)
Length of Visible Light 11h 11m
Length of Day
10h 09m
Full, 99% of the Moon is Illuminated
Oct 30
Full
Nov 6
Last Quarter
Nov 13
New
Nov 20
First Quarter
Nov 28
Full

Hourly Weather History & Observations

Time (PDT) Temp. Dew Point Humidity Pressure Visibility Wind Dir Wind Speed Gust Speed Precip Events Conditions
12:53 AM 55.0 °F 46.9 °F 74% 30.03 in 10.0 mi East 6.9 mph - N/A   Clear
1:53 AM 55.0 °F 46.9 °F 74% 30.01 in 10.0 mi East 8.1 mph - N/A   Partly Cloudy
2:53 AM 55.9 °F 46.9 °F 72% 30.01 in 10.0 mi ESE 4.6 mph - N/A   Mostly Cloudy
4:53 AM 55.9 °F 46.9 °F 72% 29.96 in 10.0 mi Variable 5.8 mph - N/A   Mostly Cloudy
5:53 AM 57.0 °F 46.9 °F 69% 29.94 in 10.0 mi ESE 6.9 mph - N/A   Overcast
6:53 AM 57.0 °F 48.0 °F 72% 29.94 in 10.0 mi Calm Calm - N/A   Overcast
7:53 AM 55.9 °F 48.0 °F 75% 29.94 in 10.0 mi Calm Calm - N/A   Overcast
8:53 AM 57.9 °F 48.0 °F 70% 29.93 in 10.0 mi SE 6.9 mph - N/A   Overcast
9:53 AM 61.0 °F 50.0 °F 67% 29.95 in 10.0 mi SSW 3.5 mph - N/A   Mostly Cloudy
10:53 AM 66.9 °F 48.9 °F 52% 29.92 in 10.0 mi SSW 6.9 mph - N/A   Mostly Cloudy
11:53 AM 64.9 °F 52.0 °F 63% 29.93 in 10.0 mi West 5.8 mph - N/A   Scattered Clouds
12:53 PM 69.1 °F 46.9 °F 45% 29.91 in 10.0 mi WSW 5.8 mph - N/A   Overcast
1:53 PM 68.0 °F 46.0 °F 45% 29.89 in 9.0 mi Calm Calm - N/A   Overcast
2:53 PM 66.9 °F 51.1 °F 57% 29.90 in 8.0 mi North 6.9 mph - 0.00 in   Overcast
3:53 PM 63.0 °F 53.1 °F 70% 29.90 in 10.0 mi NNE 5.8 mph - 0.00 in Rain Light Rain
5:53 PM 62.1 °F 54.0 °F 75% 29.86 in 10.0 mi East 5.8 mph - N/A   Overcast
6:53 PM 61.0 °F 53.1 °F 75% 29.85 in 10.0 mi ENE 4.6 mph - N/A   Scattered Clouds
7:53 PM 61.0 °F 52.0 °F 72% 29.84 in 10.0 mi South 4.6 mph - N/A   Scattered Clouds
8:53 PM 57.0 °F 53.1 °F 87% 29.84 in 10.0 mi South 5.8 mph - N/A   Clear
9:53 PM 57.9 °F 53.1 °F 84% 29.84 in 10.0 mi ESE 3.5 mph - N/A   Clear
10:53 PM 57.0 °F 52.0 °F 83% 29.83 in 10.0 mi Calm Calm - N/A   Clear
11:53 PM 55.9 °F 52.0 °F 87% 29.83 in 10.0 mi Calm Calm - N/A   Clear